Tracking 19847 objects as of 16-Sep-2019
HD Live streaming from Space Station
objects crossing your sky now

FENGYUN 1C DEB

Track FENGYUN 1C DEB now!
10-day predictions


NORAD ID: 41001
Int'l Code: 1999-025EXF
Perigee: 805.5 km
Apogee: 861.6 km
Inclination: 99.0 °
Period: 101.4 minutes
Semi major axis: 7204 km
RCS: Unknown
Launch date: May 10, 1999
Source: People's Republic of China (PRC)
Launch site: Taiyaun Space Center, China (TSC)

Note: This is SATELLITE DEBRIS
aabbcc
Your satellite tracking list
Your tracking list is empty




NASA's NSSDC Master Catalog

Two Line Element Set (TLE):
1 41001U 99025EXF 19256.84987448 +.00000970 +00000-0 +47642-3 0  9998
2 41001 098.9909 270.7133 0038934 106.9755 017.1240 14.19701470285986
Source of the keplerian elements: AFSPC